Flag for U.S.A. Weather past 2 weeks in Temple, Texas, U.S.A.

Now
82 °F

Sunny.


Feels Like: 82 °F
Forecast: 60 / 83 °F
Wind: 3 mph from North

Location: Fort Hood AAF Airport

Current Time: Oct 21, 2014 at 2:18:06 PM

Latest Report: Oct 21, 2014 at 1:56 PM


Visibility: 10 mi

Pressure: 30.05 "Hg

Humidity: 43%

Dew point: 57 °F

Location of TempleLocation

Historic Weather in Temple — Graph

°F

Temple temperature yesterday

Maximum temperature yesterday: 83 °F (at 3:56 PM)
Minimum temperature yesterday: 63 °F (at 3:56 AM)
Average temperature yesterday: 71 °F

Past Weeks' High & Low Weather Summary

 TemperatureHumidityPressure
High97 °F (Oct 7, 3:56 PM)97% (Oct 11, 3:56 AM)30.22 "Hg (Oct 11, 3:56 AM)
Low53 °F (Oct 15, 6:56 AM)17% (Oct 15, 4:56 PM)29.65 "Hg (Oct 13, 3:56 AM)
Average74 °F63%29.99 "Hg
* Reported Oct 6 12:56 PM — Oct 21 12:56 PM, Temple, Weather by CustomWeather, © 2014

Note: Actual official high and low records may vary slightly from our data, if they occured in-between our weather recording intervals... More about our weather records

Advertising

Temple weather history for previous 24 hours

 ConditionsComfort  
Time TempWeatherWind HumidityBarometerVisibility
12:56 PM
Oct 21
80 °FSunny.5 mph49%30.08 "Hg10 mi
11:56 AM78 °FSunny.3 mph54%30.10 "Hg10 mi
10:56 AM74 °FSunny.3 mph62%30.11 "Hg10 mi
9:56 AM72 °FSunny.3 mph71%30.11 "Hg10 mi
8:56 AM67 °FSunny.No wind81%30.10 "Hg10 mi
7:56 AM59 °FClear.No wind93%30.08 "Hg8 mi
6:56 AM60 °FClear.No wind90%30.14 "Hg10 mi
5:56 AM61 °FClear.No wind90%30.06 "Hg10 mi
4:56 AM61 °FClear.No wind87%30.05 "Hg10 mi
3:56 AM62 °FClear.No wind86%30.03 "Hg10 mi
2:56 AM62 °FClear.No wind90%30.04 "Hg10 mi
1:56 AM63 °FClear.No wind87%30.05 "Hg10 mi
12:56 AM66 °FClear.No wind78%30.04 "Hg10 mi
11:56 PM
Oct 20
67 °FClear.No wind76%30.05 "Hg10 mi
10:56 PM68 °FClear.No wind73%30.06 "Hg10 mi
9:56 PM70 °FClear.No wind68%30.05 "Hg10 mi
8:56 PM71 °FClear.No wind66%30.04 "Hg10 mi
7:56 PM74 °FClear.3 mph60%30.03 "Hg10 mi
6:56 PM77 °FSunny.3 mph52%30.01 "Hg10 mi
5:56 PM80 °FSunny.5 mph47%30.00 "Hg10 mi
4:56 PM83 °FPassing clouds.6 mph41%30.01 "Hg10 mi
3:56 PM83 °FSunny.7 mph38%30.01 "Hg10 mi
2:56 PM81 °FPassing clouds.7 mph49%30.03 "Hg10 mi
Weather by CustomWeather, © 2014

See weather overviewHow to use our weather pages